Regional Weather Roundup
Issued by NWS Sterling, VA

Home | Current Version | Previous Version | Text Only | Print | Product List | Glossary Off
Versions: 1 2 3 4 5 6 7 8 9 10 11 12 13 14 15 16 17 18 19 20 21 22 23 24 25 26 27 28

000
ASUS41 KLWX 222310
RWRLWX

REGIONAL WEATHER ROUNDUP
NATIONAL WEATHER SERVICE BALTIMORE MD/WASHINGTON DC
700 PM EDT TUE APR 22 2014

Note: "FAIR" indicates few or no clouds below 12,000 feet
with no significant weather and/or obstructions to visibility.
 TC=TEMPERATURE CELSIUS

 * =Non NWS site. Station does not report precipitation (e.g. rain,
    snow, etc.), thunder, or fog.

DCZ001-MDZ009-015-VAZ040>042-051-053>054-230000-
WASHINGTON METRO

CITY           SKY/WX    TMP DP  RH WIND       PRES   REMARKS
WASHINGTON NAT CLOUDY    67  58  72 SW7       29.60F
DULLES         MOCLDY    66  53  63 SW7       29.60F
ANDREWS AFB    DRIZZLE   64  57  77 SW7       29.60S
FT BELVOIR     CLOUDY    64  62  90 N1        29.60F
QUANTICO       CLOUDY    69  54  58 NE7       29.60S
COLLEGE PARK*  CLOUDY    72  54  53 W8        29.59S
LEESBURG*      MOCLDY    70  55  60 W5        29.60F
MANASSAS*      MOCLDY    66  57  72 N3        29.60S
GAITHERSBURG*  PTCLDY    70  54  56 W7        29.61F

$$

MDZ006>007-011-014-230000-
BALTIMORE METRO

CITY           SKY/WX    TMP DP  RH WIND       PRES   REMARKS
BWI AIRPORT    MOCLDY    70  53  54 W9        29.58S
MD SCIENCE CTR   N/A     71  53  52 MISG      29.59R
MARTIN STATE   MOCLDY    64  61  88 E3        29.59F
ANNAPOLIS      MOCLDY    61  56  83 E3        29.58F
FORT MEADE*    PTCLDY    68  52  56 W6        29.61R

$$

MDZ012-015-019>023-230000-
MARYLAND EASTERN SHORE

CITY           SKY/WX    TMP DP  RH WIND       PRES   REMARKS
OCEAN CITY     CLOUDY    62  53  72 S3        29.60S
SALISBURY      CLOUDY    71  51  49 CALM      29.59F
BAY BRIDGE AP* MOCLDY    64  54  68 SE3       29.58F
CAMBRIDGE*     CLOUDY    66  54  63 NW3       29.59S
EASTON*        CLOUDY    68  57  68 CALM      29.63F

$$

MDZ017>025-230000-
SOUTHERN MARYLAND

CITY           SKY/WX    TMP DP  RH WIND       PRES   REMARKS
PATUXENT RIVER CLOUDY    64  49  57 S3        29.59F
ST INIGOES     CLOUDY    67  50  54 E3        29.59S
LEONARDTOWN*   CLOUDY    70  50  49 CALM      29.61S

$$

MDZ003>005-230000-
NORTH CENTRAL MARYLAND

CITY           SKY/WX    TMP DP  RH WIND       PRES   REMARKS
FREDERICK*     PTCLDY    72  57  60 SW8       29.59F
HAGERSTOWN APT TSTM      59  50  72 W7        29.60R
WESTMINSTER*   PTCLDY    70  55  60 W8        29.59S

$$

MDZ501>502-230000-
WESTERN MARYLAND

CITY           SKY/WX    TMP DP  RH WIND       PRES   REMARKS
OAKLAND*       MOSUNNY   59  41  51 W10G20    29.65S
CUMBERLAND*    MOSUNNY   61  52  72 N6        29.65R

$$

VAZ025>031-230000-
SHENANDOAH VALLEY

CITY           SKY/WX    TMP DP  RH WIND       PRES   REMARKS
WINCHESTER*    PTCLDY    68  52  56 W9        29.59F
STAUNTON*      MOSUNNY   69  47  45 CALM      29.64S

$$

WVZ021-048>050-054>055-230000-
EASTERN WEST VIRGINIA PANHANDLE

CITY           SKY/WX    TMP DP  RH WIND       PRES   REMARKS
MARTINSBURG    MOCLDY    70  50  49 SW8       29.58F
PETERSBURG*    MOSUNNY   71  55  56 CALM      29.64F

$$

VAZ036>039-050-230000-
CENTRAL FOOTHILLS

CITY           SKY/WX    TMP DP  RH WIND       PRES   REMARKS
CHARLOTTESVILL PTSUNNY   74  48  39 CALM      29.60F
CULPEPER*      MOCLDY    72  54  53 N8        29.60S

$$

VAZ055>057-230000-
NORTH AND CENTRAL PIEDMONT

CITY           SKY/WX    TMP DP  RH WIND       PRES   REMARKS
FREDERICKSBRG* CLOUDY    76  51  42 W3        29.58S
STAFFORD*      CLOUDY    74  54  50 W3        29.63S

$$

NCZ024-NYZ072-PAZ021-071-VAZ022-071-230000-
OTHER REGIONAL OBSERVATIONS

CITY           SKY/WX    TMP DP  RH WIND       PRES   REMARKS
NEW YORK CITY  CLOUDY    66  50  56 W7        29.55F
PHILADELPHIA   CLOUDY    69  51  52 W14       29.56F
PITTSBURGH     MOSUNNY   52  42  69 NW21      29.71R
ROANOKE        PTSUNNY   70  49  47 SW9       29.68F
RICHMOND       CLOUDY    75  51  43 SW3       29.60S
RALEIGH        CLOUDY    74  51  44 W7        29.67F

$$

ANZ530>537-230000-
MARINE OBSERVATIONS

STATION/POSITION TIME  TEMP    WIND        PRES
                       AIR SEA DIR/SP/G
                 (UTC) (F)     (DEG/KT/KT) (MB)
THOMAS PT LIGHT  2300   66 56  200/  9/ 10 1002.2F
BALT KEY BRIDGE  2300   69     230/  8/ 10 1001.6F
COVE POINT       2300   61     190/  7/  7 1001.9F
SOLOMONS ISLAND  2300      57                N/A
PINEY POINT      2300           70/  1/  2   N/A

$$




USA.gov is the U.S. government's official web portal to all federal, state and local government web resources and services.